Location: Newark
(13.6797°N, 8.5297°E)
Time: 18:05:16
(UTC+00:00)

Vanguard 2 - Visible Passes

Search period start: 27 January 2020 00:00
Search period end: 06 February 2020 00:00
Orbit: 553 x 2938 km, 32.9° (Epoch: 26 January)

Date Brightness Start Highest point End Pass type
(mag) Time Alt. Az. Time Alt. Az. Time Alt. Az.
27 Jan 12.0 03:25:15 10° S 03:33:08 15° SE 03:41:20 10° ESE visible
27 Jan 11.5 05:30:20 10° SSW 05:46:43 45° SE 06:01:25 10° ENE visible
28 Jan 11.9 03:40:35 10° S 03:51:45 21° SE 04:03:29 10° E visible
29 Jan 11.7 03:56:52 10° SSW 04:10:08 29° SE 04:24:03 10° E visible
30 Jan 11.4 04:13:40 10° SSW 04:28:20 39° SE 04:43:43 10° E visible
31 Jan 11.8 02:26:08 10° S 02:33:55 16° SE 02:42:35 10° ESE visible
31 Jan 11.1 04:30:47 10° SSW 04:46:27 50° SE 05:02:48 10° ENE visible
01 Feb 11.6 02:41:38 10° S 02:52:12 23° SE 03:04:23 10° E visible
01 Feb 10.8 04:48:13 10° SW 05:04:33 63° SE 05:21:29 10° ENE visible
02 Feb 11.4 02:58:02 10° SSW 03:10:16 31° SE 03:24:47 10° E visible
02 Feb 10.6 05:05:56 10° SW 05:22:41 78° SE 05:39:52 10° ENE visible
03 Feb 11.0 03:14:53 10° SSW 03:28:14 42° SE 03:44:20 10° ENE visible
03 Feb 10.5 05:23:55 10° WSW 05:40:54 88° NNW 05:58:05 10° ENE visible
04 Feb 11.5 01:29:20 12° SSE 01:34:52 16° SE 01:42:57 10° ESE visible
04 Feb 10.7 03:32:05 10° SW 03:46:10 54° SE 04:03:21 10° ENE visible
05 Feb 11.2 01:47:57 19° SSE 01:52:50 23° SE 02:04:33 10° E visible
05 Feb 10.4 03:49:35 10° SW 04:04:10 68° SE 04:22:00 10° ENE visible
